Other Public Products
Issued by NWS Grand Forks, ND

Home | Current Version | Previous Version | Graphics & Text | Print | Product List | Glossary On
Versions: 1 2 3 4 5 6 7 8 9 10 11 12 13 14 15 16 17 18 19 20 21 22 23 24 25 26 27 28 29 30 31 32 33 34 35 36 37 38 39 40 41 42 43 44 45 46 47 48 49 50
000
FPUS83 KFGF 030310
OPUFGF
PRAIRIE TO PINES WEATHER ROUNDUP
NATIONAL WEATHER SERVICE EASTERN NORTH DAKOTA/GRAND FORKS ND
1000 PM CDT MON MAY 02 2016

 **SATELLITE DATA USED TO AUGMENT SKY COVER AT AUTOMATED STATIONS**
 *****  WEATHER ACROSS EASTERN NORTH DAKOTA  *****

CITY           SKY/WX    TMP DP  RH WIND       PRES   REMARKS
GRAND FORKS    PTCLDY    58  37  45 W10       29.95R
GRAND FORKS AF NOT AVBL
GRAND CITY NWS NOT AVBL
BUXTON         NOT AVBL
DEVILS LAKE    PTCLDY    55  39  54 SW10      29.99S
FARGO          CLEAR     57  36  45 W9        29.97R
WAHPETON ARPT  CLEAR     54  34  47 NW6       29.99R
$$

 *****  WEATHER ACROSS CENTRAL AND WESTERN NORTH DAKOTA  *****

CITY           SKY/WX    TMP DP  RH WIND       PRES   REMARKS
JAMESTOWN      CLEAR     47  39  74 SE5       30.00S
BISMARCK       CLEAR     51  43  74 E3        30.01R
MINOT          CLEAR     62  35  36 S3        29.98S
MINOT AFB      NOT AVBL
GARRISON         N/A     56  36  47 CALM      30.00R
WILLISTON      CLOUDY    51  34  52 CALM      29.99R
DICKINSON      CLEAR     52  32  46 E5        30.01R
HETTINGER      CLEAR     45  32  60 NE6       30.04R
$$

 *****  OTHER OBSERVATIONS NORTHEAST NORTH DAKOTA  *****

CITY           SKY/WX    TMP DP  RH WIND       PRES   REMARKS
WALHALLA       FAIR      59  39  47 W5        29.94S
LANGDON        FAIR      52  36  54 SW12      29.97R
CAVALIER       FAIR      57  39  51 CALM      29.93S
GRAFTON        FAIR      59  37  44 W6        29.95S
CANDO          FAIR      55  34  44 SW8       30.00S
FORT TOTTEN      N/A     56  33  41 S6        29.95S
ROLLA          FAIR      54  36  50 SW9       29.98S
RUGBY          FAIR      55  36  47 SW8       29.98S
 ***** THE ABOVE OBSERVATIONS ARE NON NWS ARE NOT QUALITY
        CONTROLLED AND MAY MIS-REPORT RAIN FOR SNOW...
$$

 *****  OTHER OBSERVATIONS SOUTHEAST NORTH DAKOTA *****

CITY           SKY/WX    TMP DP  RH WIND       PRES   REMARKS
COOPERSTOWN    NOT AVBL
VALLEY CITY    FAIR      50  37  62 W9        30.02S
OAKES            N/A    N/A N/A N/A MISG        N/A
GWINNER        FAIR      54  37  54 NW7       30.01S
SHEYENNE NWR     N/A     55  36  49 NW6       29.95S
BUFFALO        NOT AVBL
WYNDMERE       NOT AVBL
 ***** THE ABOVE OBSERVATIONS ARE NON NWS ARE NOT QUALITY
       CONTROLLED AND MAY MIS-REPORT RAIN FOR SNOW...
$$

  *****  WEATHER ACROSS NORTHERN MINNESOTA  *****

CITY           SKY/WX    TMP DP  RH WIND       PRES   REMARKS
FLAG ISLAND    PTCLDY    52  45  76 CALM      29.89F
WARROAD        CLOUDY    57  36  44 SW6       29.92S
ROSEAU         CLOUDY    63  32  31 W3        29.92S
HALLOCK        CLOUDY    57  25  28 SW3       29.92F
THF RVR FALLS  CLOUDY    55  27  33 CALM      29.95S
HALSTAD        NOT AVBL
FOSSTON        CLEAR     48  27  43 CALM      29.96S
BAUDETTE       PTCLDY    51  36  56 S6        29.92F
WASKISH        CLEAR     55  41  58 W3        29.94S
CROOKSTON      CLEAR     57  32  38 W12       29.96R
$$
  *****  WEATHER ACROSS CENTRAL AND WEST MINNESOTA  *****

CITY           SKY/WX    TMP DP  RH WIND       PRES   REMARKS
BEMIDJI        CLEAR     51  28  41 CALM      29.95S
PARK RAPIDS    CLEAR     53  30  41 SW8       29.96S
WADENA         CLEAR     52  30  43 CALM      29.98S
DETROIT LAKES  CLEAR     59  30  33 SW5       29.99S
MOORHEAD       CLEAR     61  36  39 W10       29.98S
FERGUS FALLS   CLEAR     57  30  35 S3        29.96R
ELBOW LAKE     FAIR      54  32  43 S5        29.99S
MORRIS MN      CLEAR     57  34  41 SW6       29.98F
STAPLES        CLEAR     48  32  53 SW3       29.98S
WHEATON        CLEAR     55  36  47 CALM      30.00S
$$
  *****  WEATHER ELSEWHERE ACROSS MINNESOTA  *****

CITY           SKY/WX    TMP DP  RH WIND       PRES   REMARKS
DULUTH         PTCLDY    50  31  48 SE3       29.97S
INTRNTL FALLS  CLOUDY    47  34  60 CALM      29.92F
ELY            CLEAR     52  30  43 S8        29.93F
CLOQUET        CLEAR     48  30  49 CALM      29.97S
BRAINERD       CLEAR     53  32  44 CALM      29.98S
HIBBING        CLEAR     41  32  70 S5        29.94F
ALEXANDRIA     CLEAR     54  29  38 SW5       30.00S
SAINT CLOUD    CLEAR     52  34  50 CALM      29.99S
MINNEAPOLIS    CLEAR     59  30  33 CALM      30.01R
$$

  *****  WEATHER ACROSS SOUTH DAKOTA  *****

CITY           SKY/WX    TMP DP  RH WIND       PRES   REMARKS
SIOUX FALLS    CLEAR     49  39  68 CALM      30.02R
BROOKINGS      CLEAR     51  36  56 SW5       30.01R
WATERTOWN      PTCLDY    52  40  63 NW6       30.01R
HURON          MOCLDY    51  43  74 NE5       30.01R
SISSETON         N/A     54  36  50 NW5       29.98S
ABERDEEN       CLEAR     47  37  68 CALM      30.01R
MITCHELL       PTCLDY    49  46  90 SE5       30.02R
PIERRE         PTCLDY    48  42  80 CALM      30.01R
MOBRIDGE       CLEAR     50  44  80 E3        29.99R
RAPID CITY     CLEAR     47  37  68 N9        30.02R
$$

  *****  SOME WEATHER IN NEARBY STATES *****

CITY           SKY/WX    TMP DP  RH WIND       PRES   REMARKS
GLASGOW MT     CLEAR     63  41  44 N8        30.01S
GREAT FALLS MT CLEAR     59  36  42 SE6       30.09S
CHEYENNE WY    CLEAR     46  26  45 NW9       30.14R
SCOTTSBLUFF NE CLEAR     51  33  50 N10       30.05R
OMAHA NE       PTCLDY    50  42  74 SE3       30.04S
DES MOINES IA  PTCLDY    54  42  64 S5        30.06R
DAVENPORT IA   PTCLDY    52  43  71 NW5       30.03S
CHICAGO IL     PTCLDY    48  34  58 NE5       30.02R
EAU CLAIRE WI  CLEAR     52  37  56 S5        29.99F
LA CROSSE WI   CLOUDY    57  42  57 SE3       30.02R
$$

  *****  SOME NATIONAL WEATHER *****

CITY           SKY/WX    TMP DP  RH WIND       PRES   REMARKS
LA GUARDIA NY  CLOUDY    56  50  80 CALM      29.93S
RALEIGH NC     CLOUDY    68  62  81 S15       29.92F
ATLANTA GA     LGT RAIN  69  60  73 NW14      29.95R
NEW ORLEANS LA PTCLDY    72  69  90 CALM      29.97R
OKLAHOMA CITY  PTCLDY    52  42  69 CALM      30.12R
ALBUQUERQUE NM MOCLDY    60  28  29 SW6       30.16R
SALT LAKE CITY CLEAR     59  33  37 N7        30.15R
LOS ANGELES CA PTCLDY    59  53  80 W14       29.95S
BOISE ID       CLEAR     69  25  19 SE6       30.07R
SEATTLE WA     PTCLDY    75  45  34 SW8G18    29.91R
$$

*** WEATHER ACROSS MANITOBA...SASKATCHEWAN AND ONTARIO ***
                ***ONTARIO***

CITY           SKY/WX    TMP DP  RH WIND       PRES   REMARKS
GERALDTON      CLOUDY    54  32  43 SW8       29.86F
THUNDER BAY    MOCLDY    46  34  61 E5        29.93F
SIOUX LOOKOUT  MOCLDY    54  32  43 SW5       29.84F
TORONTO        PTCLDY    46  37  71 CALM      29.97F
BIG TROUT LK   CLOUDY    45  37  76 SW8       29.62F
PICKLE LAKE    NOT AVBL
DRYDEN         MOCLDY    55  28  35 SW8       29.86F
KENORA         CLOUDY    55  25  30 SW7       29.88F
$$
                *** MANITOBA***

CITY           SKY/WX    TMP DP  RH WIND       PRES   REMARKS
BRANDON        MOCLDY    52  36  54 W6        29.94S
DAUPHIN        CLEAR     54  39  58 SW5       29.90F
ISLAND LAKE    PTCLDY    50  30  46 N9        29.74R
PILOT MOUND    NOT AVBL
THE PAS        CLOUDY    52  30  43 N5        29.92R
THOMPSON       PTCLDY    50  28  43 NW6       29.86R
WINNIPEG       PTCLDY    61  36  39 SW5       29.90F
LYNN LAKE      CLEAR     46  28  49 N7        29.98R
CHURCHILL      LGT RAIN  32  32 100 N24G31    29.81R WCI  19
GILLAM         CLEAR     43  32  65 N14       29.77R
$$
                ***SASKATCHEWAN***

CITY           SKY/WX    TMP DP  RH WIND       PRES   REMARKS
ESTEVAN        MOCLDY    54  32  43 N3        29.98R
KINDERSLEY     PTCLDY    66  39  37 CALM      30.01R
LLOYDMINSTER   PTCLDY    70  37  30 SW5       29.99S
PRINCE ALBERT  MOCLDY    63  36  36 N2        29.95R
REGINA         PTCLDY    64  28  25 CALM      30.00R
YORKTON        CLEAR     63  34  34 SW7       29.94S  C1F1C2F2C3F3C4F4C5F5C6F6C7F7C8F8C9F9CaFaCbFbCcFcCdFdCe!



USA.gov is the U.S. government's official web portal to all federal, state and local government web resources and services.